Weather History for Corpus Christi, TX

Change the Weather History Date:

Thursday, October 3, 2013

  Actual Average Record
Temperature  
Mean Temperature 84 °F 78 °F  
Max Temperature 93 °F 87 °F 94 °F (1990)
Min Temperature 75 °F 68 °F 54 °F (1961)
Degree Days  
Heating Degree Days 0 0  
Month to date heating degree days 0 0  
Since 1 July heating degree days 0 0  
Cooling Degree Days 19 13  
Month to date cooling degree days 61 39  
Year to date cooling degree days 3656 3082  
Growing Degree Days 34 (Base 50)    
Moisture  
Dew Point 73 °F    
Average Humidity 72    
Maximum Humidity 94    
Minimum Humidity 49    
Precipitation  
Precipitation 0.00 in 0.12 in 2.55 in (1949)
Month to date precipitation 0.24 0.38  
Year to date precipitation 17.56 24.70  
Snow  
Snow 0.00 in - - ()
Month to date snowfall 0.0  
Since 1 July snowfall 0.0  
Since 1 September snowfall 0.0  
Snow Depth 0.00 in    
Sea Level Pressure  
Sea Level Pressure 29.88 in    
Wind  
Wind Speed 9 mph (SSE)    
Max Wind Speed 18 mph    
Max Gust Speed 24 mph    
Visibility 10 miles    
Events      
T = Trace of Precipitation, MM = Missing Value Source: NWS Daily Summary

Daily Weather History Graph

Daily Weather History Graph

Search for Another Location

Airport:

Trip Planner

Search our weather history database for the weather conditions in past years. The results will help you decide how hot, cold, wet, or windy it might be!

Date:

Astronomy

Oct. 03, 2013 Rise Set
Actual Time 7:23 AM CDT 7:13 PM CDT
Civil Twilight 7:00 AM CDT 7:36 PM CDT
Nautical Twilight 6:33 AM CDT 8:03 PM CDT
Astronomical Twilight 6:06 AM CDT 8:31 PM CDT
Moon 6:03 AM CDT (10/3) 6:20 PM CDT (10/3)
Length of Visible Light 12h 36m
Length of Day
11h 49m
Waning Crescent, 2% of the Moon is Illuminated
Oct 3
Waning Crescent
Oct 4
New
Oct 11
First Quarter
Oct 18
Full
Oct 26
Last Quarter

Hourly Weather History & Observations

Time (CDT) Temp. Heat Index Dew Point Humidity Pressure Visibility Wind Dir Wind Speed Gust Speed Precip Events Conditions
12:51 AM 80.1 °F 85.1 °F 75.0 °F 85% 29.91 in 10.0 mi SSE 5.8 mph - N/A   Mostly Cloudy
1:51 AM 78.1 °F - 75.0 °F 90% 29.90 in 10.0 mi South 4.6 mph - N/A   Partly Cloudy
2:51 AM 77.0 °F - 73.9 °F 90% 29.88 in 10.0 mi South 4.6 mph - N/A   Scattered Clouds
3:51 AM 75.9 °F - 73.9 °F 94% 29.87 in 10.0 mi South 3.5 mph - N/A   Partly Cloudy
4:51 AM 75.9 °F - 73.9 °F 94% 29.87 in 10.0 mi South 4.6 mph - N/A   Mostly Cloudy
5:51 AM 77.0 °F - 73.9 °F 90% 29.87 in 10.0 mi SSE 6.9 mph - N/A   Partly Cloudy
6:51 AM 75.9 °F - 73.0 °F 91% 29.87 in 10.0 mi Calm Calm - N/A   Partly Cloudy
7:51 AM 75.9 °F - 73.9 °F 94% 29.88 in 10.0 mi SSE 5.8 mph - N/A   Partly Cloudy
8:51 AM 80.1 °F 85.1 °F 75.0 °F 85% 29.91 in 10.0 mi Calm Calm - N/A   Partly Cloudy
9:51 AM 84.0 °F 91.2 °F 73.9 °F 72% 29.92 in 10.0 mi South 6.9 mph - N/A   Scattered Clouds
10:51 AM 87.1 °F 93.6 °F 72.0 °F 61% 29.92 in 10.0 mi SSE 12.7 mph - N/A   Scattered Clouds
11:51 AM 90.0 °F 95.4 °F 70.0 °F 52% 29.91 in 10.0 mi SSE 12.7 mph - N/A   Scattered Clouds
12:51 PM 90.0 °F 96.9 °F 72.0 °F 55% 29.90 in 10.0 mi SE 10.4 mph - N/A   Scattered Clouds
1:51 PM 91.9 °F 96.9 °F 69.1 °F 47% 29.89 in 10.0 mi ESE 16.1 mph 21.9 mph N/A   Scattered Clouds
2:51 PM 91.0 °F 97.6 °F 71.1 °F 52% 29.87 in 10.0 mi SE 11.5 mph - N/A   Scattered Clouds
3:51 PM 91.0 °F 97.6 °F 71.1 °F 52% 29.85 in 10.0 mi ESE 13.8 mph - N/A   Scattered Clouds
4:51 PM 89.1 °F 94.1 °F 70.0 °F 53% 29.85 in 10.0 mi SE 15.0 mph - N/A   Scattered Clouds
5:51 PM 88.0 °F 93.8 °F 71.1 °F 57% 29.84 in 10.0 mi SE 16.1 mph - N/A   Partly Cloudy
6:51 PM 84.9 °F 90.7 °F 72.0 °F 65% 29.84 in 10.0 mi ESE 13.8 mph - N/A   Partly Cloudy
7:51 PM 82.0 °F 86.7 °F 72.0 °F 71% 29.85 in 10.0 mi SE 11.5 mph - N/A   Partly Cloudy
8:51 PM 81.0 °F 85.8 °F 73.0 °F 77% 29.86 in 10.0 mi SE 9.2 mph - N/A   Partly Cloudy
9:51 PM 80.1 °F 83.8 °F 72.0 °F 76% 29.88 in 10.0 mi SE 9.2 mph - N/A   Partly Cloudy
10:51 PM 79.0 °F - 72.0 °F 79% 29.89 in 10.0 mi SE 9.2 mph - N/A   Partly Cloudy
11:51 PM 78.1 °F - 72.0 °F 81% 29.88 in 10.0 mi SSE 8.1 mph - N/A   Partly Cloudy